Flag for Austria Weather past 2 weeks in Waidhofen an der Ybbs, Lower Austria, Austria

Now
54 °F

Cool.


Feels Like: 54 °F
Forecast: 47 / 74 °F
Wind: 1 mph from Southeast

Location: Amstetten

Current Time: Aug 21, 2014 at 8:35:29 AM

Latest Report: Aug 21, 2014 at 7:00 AM


Visibility: N/A

Pressure: 30.04 "Hg

Humidity: 99%

Dew point: 53 °F

Location of Waidhofen an der YbbsLocation

Historic Weather in Waidhofen an der Ybbs — Graph

°F

Waidhofen an der Ybbs temperature yesterday

Maximum temperature yesterday: 62 °F (at 12:00 AM)
Minimum temperature yesterday: 54 °F (at 11:00 PM)
Average temperature yesterday: 59 °F

Past Weeks' High & Low Weather Summary

 TemperatureHumidityPressure
High86 °F (Aug 10, 4:00 PM)99% (Aug 21, 4:00 AM)30.14 "Hg (Aug 21, 4:00 AM)
Low51 °F (Aug 18, 4:00 AM)33% (Aug 8, 5:00 PM)29.67 "Hg (Aug 13, 8:00 PM)
Average65 °F79%29.96 "Hg
* Reported Aug 6 7:00 AM — Aug 21 7:00 AM, Waidhofen an der Ybbs, Weather by CustomWeather, © 2014

Note: Actual official high and low records may vary slightly from our data, if they occured in-between our weather recording intervals... More about our weather records

Advertising

Waidhofen an der Ybbs weather history for previous 24 hours

 ConditionsComfort  
Time TempWeatherWind HumidityBarometerVisibility
7:00 AM
Aug 21
54 °FCool.1 mph99%30.04 "HgN/A
6:00 AM54 °FFog.1 mph98%30.03 "HgN/A
5:00 AM54 °FCool.1 mph97%30.05 "HgN/A
4:00 AM54 °FFog.1 mph99%30.04 "HgN/A
3:00 AM54 °FSprinkles. Overcast.1 mph98%30.03 "HgN/A
2:00 AM54 °FCool.1 mph98%30.04 "HgN/A
1:00 AM55 °FFog.1 mph97%30.06 "HgN/A
12:00 AM55 °FFog.No wind97%30.06 "HgN/A
11:00 PM
Aug 20
54 °FCool.1 mph97%30.06 "HgN/A
10:00 PM55 °FFog.1 mph95%30.06 "HgN/A
9:00 PM55 °FFog.1 mph94%30.05 "HgN/A
8:00 PM56 °FCool.1 mph94%30.05 "HgN/A
7:00 PM57 °FCool.1 mph91%30.03 "HgN/A
6:00 PM59 °FCool.1 mph77%30.02 "HgN/A
5:00 PM60 °FCool.2 mph76%30.02 "HgN/A
4:00 PM60 °FCool.1 mph73%30.04 "HgN/A
3:00 PM61 °FCool.2 mph79%30.05 "HgN/A
2:00 PM60 °FCool.No wind80%30.06 "HgN/A
1:00 PM61 °FCool.1 mph72%30.06 "HgN/A
12:00 PM61 °FCool.2 mph74%30.06 "HgN/A
11:00 AM60 °FCool.2 mph72%30.06 "HgN/A
10:00 AM59 °FCool.2 mph81%30.05 "HgN/A
9:00 AM59 °FCool.2 mph86%30.03 "HgN/A
8:00 AM59 °FOvercast.2 mph88%30.03 "HgN/A
Weather by CustomWeather, © 2014

See weather overviewHow to use our weather pages